Flag for Norway Weather past 2 weeks in Molde, Norway

Now
34 °F

Partly cloudy.


Feels Like: 23 °F
Forecast: 38 / 45 °F
Wind: 17 mph from West

Location: Molde / Aro

Current Time: Dec 28, 2014 at 9:52:45 PM

Latest Report: Dec 28, 2014 at 9:20 PM


Visibility: 5 mi

Pressure: 30.24 "Hg

Humidity: 93%

Dew point: 32 °F

Location of MoldeLocation

Historic Weather in Molde — Graph

°F

Molde temperature yesterday

Maximum temperature yesterday: 27 °F (at 12:20 AM)
Minimum temperature yesterday: 21 °F (at 9:50 AM)
Average temperature yesterday: 24 °F

Past Weeks' High & Low Weather Summary

 TemperatureHumidityPressure
High46 °F (Dec 14, 6:20 PM)100% (Dec 15, 7:50 AM)30.24 "Hg (Dec 15, 7:50 AM)
Low21 °F (Dec 27, 9:50 AM)49% (Dec 14, 12:50 PM)28.82 "Hg (Dec 14, 5:20 PM)
Average34 °F86%29.31 "Hg
* Reported Dec 14 10:50 AM — Dec 28 8:50 PM, Molde, Weather by CustomWeather, © 2014

Note: Actual official high and low records may vary slightly from our data, if they occured in-between our weather recording intervals... More about our weather records

Advertising

Molde weather history for previous 24 hours

 ConditionsComfort  
Time TempWeatherWind HumidityBarometerVisibility
8:50 PM
Dec 28
34 °FSnow flurries. Partly cloudy.10 mph93%30.24 "Hg5 mi
8:20 PM32 °FSnow flurries. Ice fog.13 mph100%30.24 "Hg3 mi
7:50 PM32 °FSnow showers. Dense fog.6 mph100%30.24 "Hg2 mi
7:20 PM32 °FSnow showers. Dense fog.6 mph100%30.24 "Hg2 mi
6:50 PM32 °FSnow flurries. Partly cloudy.12 mph100%30.24 "Hg5 mi
6:20 PM32 °FSnow showers. Dense fog.9 mph93%30.24 "Hg2 mi
5:20 PM32 °FSnow flurries. Partly cloudy.No wind100%30.21 "Hg5 mi
4:50 PM32 °FSnow flurries. Partly cloudy.2 mph93%30.21 "Hg5 mi
4:20 PM30 °FLight snow. Ice fog.5 mph100%30.21 "Hg4 mi
3:50 PM30 °FLight snow. Ice fog.No wind100%30.21 "Hg4 mi
3:20 PM30 °FLight snow. Partly cloudy.3 mph100%30.21 "Hg6 mi
2:50 PM30 °FScattered showers. Broken clouds.No wind100%30.21 "HgN/A
2:20 PM30 °FLight snow. Ice fog.5 mph93%30.18 "Hg3 mi
1:20 PM30 °FSnow. Ice fog.5 mph93%30.18 "Hg1 mi
12:50 PM30 °FLight snow. Ice fog.3 mph93%30.18 "Hg3 mi
12:20 PM30 °FLight snow. Ice fog.2 mph93%30.18 "Hg3 mi
11:50 AM30 °FHeavy snow. Ice fog.3 mph93%30.21 "Hg1 mi
11:20 AM28 °FHeavy snow. Ice fog.5 mph93%30.21 "Hg0 mi
10:50 AM28 °FScattered showers. Partly sunny.No wind93%30.18 "HgN/A
10:20 AM28 °FLight snow. Ice fog.3 mph93%30.18 "Hg4 mi
Weather by CustomWeather, © 2014

See weather overviewHow to use our weather pages